TimeCDT,TemperatureF,Dew PointF,Humidity,Sea Level PressureIn,VisibilityMPH,Wind Direction,Wind SpeedMPH,Gust SpeedMPH,PrecipitationIn,Events,Conditions,WindDirDegrees,DateUTC
12:53 AM,19.9,14.0,78,30.04,5.0,NNE,8.1,-,0.00,Snow,Light Snow,20,2013-03-16 05:53:00
1:16 AM,19.4,12.2,74,29.97,10.0,North,9.2,-,0.00,,Overcast,10,2013-03-16 06:16:00
1:53 AM,17.1,10.9,77,30.05,10.0,North,9.2,-,0.00,,Overcast,360,2013-03-16 06:53:00
2:13 AM,15.8,8.6,73,30.00,8.0,North,8.1,-,N/A,,Overcast,10,2013-03-16 07:13:00
2:53 AM,15.1,9.0,77,30.07,6.0,North,10.4,-,0.00,Snow,Light Snow,10,2013-03-16 07:53:00
3:53 AM,14.0,7.0,74,30.08,5.0,North,8.1,-,0.00,Snow,Light Snow,360,2013-03-16 08:53:00
4:53 AM,12.0,5.0,73,30.11,5.0,North,8.1,-,0.00,Snow,Light Snow,360,2013-03-16 09:53:00
5:53 AM,10.9,3.9,73,30.14,4.0,North,8.1,-,0.00,Snow,Light Snow,350,2013-03-16 10:53:00
6:53 AM,9.0,1.9,73,30.17,5.0,North,9.2,-,0.00,Snow,Light Snow,350,2013-03-16 11:53:00
7:53 AM,3.9,-0.9,80,30.18,8.0,NNW,8.1,-,0.00,,Clear,340,2013-03-16 12:53:00
8:53 AM,7.0,-0.0,73,30.19,10.0,North,9.2,-,N/A,,Clear,350,2013-03-16 13:53:00
9:53 AM,9.0,1.0,70,30.20,10.0,North,6.9,-,N/A,,Clear,350,2013-03-16 14:53:00
10:53 AM,12.0,1.0,61,30.20,10.0,NNW,10.4,-,N/A,,Clear,340,2013-03-16 15:53:00
11:53 AM,14.0,1.9,59,30.20,10.0,NW,9.2,-,N/A,,Clear,320,2013-03-16 16:53:00
12:53 PM,17.1,3.0,54,30.20,10.0,NW,11.5,-,N/A,,Clear,310,2013-03-16 17:53:00
1:53 PM,18.0,3.9,54,30.19,10.0,West,11.5,-,N/A,,Clear,280,2013-03-16 18:53:00
2:53 PM,19.0,3.9,52,30.19,10.0,WNW,12.7,-,N/A,,Clear,300,2013-03-16 19:53:00
3:24 PM,19.4,3.2,49,30.10,1.8,WNW,16.1,21.9,N/A,,Haze,290,2013-03-16 20:24:00
3:38 PM,19.4,3.2,49,30.10,10.0,NW,12.7,21.9,N/A,,Clear,320,2013-03-16 20:38:00
3:53 PM,19.9,3.9,50,30.17,10.0,WNW,11.5,-,N/A,,Partly Cloudy,290,2013-03-16 20:53:00
4:53 PM,19.9,3.0,48,30.16,10.0,NW,15.0,25.3,N/A,,Clear,320,2013-03-16 21:53:00
5:53 PM,19.9,3.0,48,30.17,10.0,NW,11.5,20.7,N/A,,Clear,320,2013-03-16 22:53:00
6:53 PM,17.1,1.0,50,30.19,10.0,North,13.8,-,N/A,,Clear,350,2013-03-16 23:53:00
7:53 PM,12.9,-2.0,51,30.24,10.0,North,10.4,-,N/A,,Clear,350,2013-03-17 00:53:00
8:53 PM,9.0,-4.0,56,30.27,10.0,North,5.8,-,N/A,,Clear,350,2013-03-17 01:53:00
9:53 PM,5.0,-6.0,61,30.30,10.0,North,5.8,-,N/A,,Clear,360,2013-03-17 02:53:00
10:53 PM,3.0,-7.1,63,30.32,10.0,North,6.9,-,N/A,,Clear,360,2013-03-17 03:53:00
11:53 PM,-0.0,-9.0,66,30.34,10.0,North,3.5,-,N/A,,Clear,360,2013-03-17 04:53:00